Location: Newark
(31.5350°N, 35.0986°E)
Time: 19:40:02
(UTC+00:00)

Explorer 7 - Pass Details

Date: 21 October 2019
Orbit: 485 x 680 km, 50.3° (Epoch: 11 November)

Event Time Altitude Azimuth Distance (km) Brightness Sun altitude
Rises 15:12:40 0° 315° (NW) 2,635 10.8 -3.2°
Reaches altitude 10° 15:14:49 10° 317° (NW) 1,772 9.9 -3.6°
Maximum altitude 15:18:51 76° 42° (NE) 572 6.8 -4.5°
Drops below altitude 10° 15:23:08 10° 129° (SE) 1,882 9.2 -5.4°
Sets 15:25:28 0° 131° (SE) 2,815 10.0 -5.8°
